Weather History for KLBF - July, 2013

Change the Weather History Date:

Saturday, July 13, 2013

  Actual Average Record
Temperature  
Mean Temperature 87 °F 74 °F  
Max Temperature 102 °F 89 °F 108 °F (1954)
Min Temperature 71 °F 61 °F 40 °F (1950)
Degree Days  
Heating Degree Days 0 0  
Month to date heating degree days 4 0  
Since 1 June heating degree days 51 51  
Since 1 July heating degree days 4 0  
Cooling Degree Days 22 10  
Month to date cooling degree days 151 116  
Year to date cooling degree days 378 282  
Since 1 June cooling degree days 330 254  
Growing Degree Days 36 (Base 50)    
Moisture  
Dew Point 64 °F    
Average Humidity 51    
Maximum Humidity 74    
Minimum Humidity 27    
Precipitation  
Precipitation 0.00 in 0.09 in 1.80 in (1947)
Month to date precipitation 0.07 1.21  
Year to date precipitation 8.18 12.07  
Snow  
Snow 0.00 in 0.00 in 0.00 in (2002)
Month to date snowfall 0.0 0.0  
Since 1 June snowfall T 0.0  
Since 1 July snowfall 0.0 0.0  
Snow Depth 0.00 in    
Sea Level Pressure  
Sea Level Pressure 29.81 in    
Wind  
Wind Speed 8 mph (ESE)    
Max Wind Speed 18 mph    
Max Gust Speed 28 mph    
Visibility 10 miles    
Events      
T = Trace of Precipitation, MM = Missing Value Source: NWS Daily Summary

Daily Weather History Graph

Daily Weather History Graph

Search for Another Location

Airport or City:

Trip Planner

Search our weather history database for the weather conditions in past years. The results will help you decide how hot, cold, wet, or windy it might be!

Date:

Astronomy

Jul. 13, 2013 Rise Set
Actual Time 6:21 AM CDT 9:14 PM CDT
Civil Twilight 5:48 AM CDT 9:47 PM CDT
Nautical Twilight 5:07 AM CDT 10:28 PM CDT
Astronomical Twilight 4:19 AM CDT 11:16 PM CDT
Moon 11:43 AM CDT (7/13) 11:52 PM CDT (7/13)
Length of Visible Light 15h 58m
Length of Day
14h 53m
Waxing Crescent, 26% of the Moon is Illuminated
Jul 13
Waxing Crescent
Jul 15
First Quarter
Jul 22
Full
Jul 29
Last Quarter
Aug 6
New

Hourly Weather History & Observations

Time (CDT) Temp. Heat Index Dew Point Humidity Pressure Visibility Wind Dir Wind Speed Gust Speed Precip Events Conditions
12:53 AM 86.0 °F 85.4 °F 59.0 °F 40% 29.79 in 10.0 mi South 11.5 mph - N/A   Mostly Cloudy
1:53 AM 81.0 °F 81.6 °F 60.1 °F 49% 29.82 in 10.0 mi SSW 5.8 mph - N/A   Clear
2:53 AM 78.1 °F - 62.1 °F 58% 29.84 in 10.0 mi North 16.1 mph 27.6 mph N/A   Clear
3:53 AM 75.0 °F - 62.1 °F 64% 29.84 in 10.0 mi NE 16.1 mph - N/A   Clear
4:53 AM 73.9 °F - 62.1 °F 66% 29.84 in 10.0 mi NE 11.5 mph - N/A   Clear
5:53 AM 72.0 °F - 62.1 °F 71% 29.83 in 10.0 mi ENE 9.2 mph 16.1 mph N/A   Clear
6:53 AM 71.1 °F - 63.0 °F 75% 29.85 in 10.0 mi SE 4.6 mph - N/A   Partly Cloudy
7:53 AM 75.0 °F - 64.9 °F 71% 29.84 in 10.0 mi ESE 6.9 mph - N/A   Clear
8:53 AM 78.1 °F - 64.9 °F 64% 29.85 in 10.0 mi SE 5.8 mph - N/A   Clear
9:53 AM 81.0 °F 82.5 °F 64.0 °F 56% 29.85 in 10.0 mi SE 4.6 mph - N/A   Clear
10:53 AM 86.0 °F 86.8 °F 63.0 °F 46% 29.84 in 10.0 mi Calm Calm - N/A   Clear
11:53 AM 91.0 °F 91.9 °F 63.0 °F 39% 29.84 in 10.0 mi Calm Calm - N/A   Clear
12:53 PM 93.0 °F 94.2 °F 63.0 °F 37% 29.82 in 10.0 mi West 3.5 mph - N/A   Clear
1:53 PM 96.1 °F 96.9 °F 62.1 °F 32% 29.81 in 10.0 mi Variable 3.5 mph - N/A   Clear
2:53 PM 98.1 °F 98.6 °F 61.0 °F 29% 29.81 in 10.0 mi Variable 4.6 mph - N/A   Clear
3:53 PM 100.0 °F 101.8 °F 63.0 °F 29% 29.79 in 10.0 mi East 4.6 mph - N/A   Clear
4:53 PM 100.0 °F 101.2 °F 61.0 °F 28% 29.77 in 10.0 mi Variable 4.6 mph - N/A   Clear
5:42 PM 100.4 °F 103.6 °F 64.4 °F 31% 29.87 in 10.0 mi ESE 12.7 mph - N/A   Clear
5:53 PM 100.0 °F 101.8 °F 62.1 °F 29% 29.76 in 10.0 mi East 13.8 mph - N/A   Clear
6:53 PM 99.0 °F 101.7 °F 64.0 °F 32% 29.75 in 10.0 mi ESE 15.0 mph - N/A   Clear
7:53 PM 96.1 °F 98.8 °F 64.9 °F 36% 29.75 in 10.0 mi ESE 9.2 mph - N/A   Clear
8:53 PM 88.0 °F 92.1 °F 69.1 °F 53% 29.77 in 10.0 mi East 10.4 mph - N/A   Partly Cloudy
9:53 PM 84.0 °F 88.4 °F 70.0 °F 63% 29.77 in 10.0 mi ESE 9.2 mph - N/A   Partly Cloudy
10:53 PM 79.0 °F - 68.0 °F 69% 29.79 in 10.0 mi East 9.2 mph - N/A   Clear
11:53 PM 75.9 °F - 66.9 °F 74% 29.79 in 10.0 mi East 5.8 mph - N/A   Clear